Theta_e
317 319 321 318 322 325 330 333 333 334 334 333 334 335 340 343 348 360 353 355 357 360 348 352 351 347 344 339 339 341 343 339 337 333 326 321 322 323 325 325 323 328 331 334 336 333 330 331 328
325 324 319 319 320 324 329 332 333 334 334 332 332 334 334 341 340 352 352 355 358 360 349 351 350 347 341 336 338 341 342 340 338 335 327 322 322 323 325 324 323 326 331 331 329 332 331 323 323
326 321 320 321 321 322 326 331 333 333 333 332 332 331 333 339 345 349 354 355 359 359 350 348 349 346 339 335 337 339 341 340 338 334 328 322 322 324 328 334 333 325 327 330 332 333 325 322 323
322 319 320 322 323 323 323 326 330 332 332 333 332 333 332 351 352 352 353 355 359 359 355 347 350 344 337 334 335 337 340 340 338 334 328 323 323 324 327 331 338 336 335 336 328 323 322 322 323
320 320 323 323 323 324 326 325 325 327 329 332 332 332 333 347 348 355 354 354 359 359 356 350 348 342 335 334 332 335 339 339 337 331 328 323 324 325 326 325 328 331 331 328 325 326 325 322 322
320 320 323 325 325 325 325 325 324 325 325 328 332 333 333 346 345 351 354 356 358 358 356 350 346 339 334 331 330 332 335 334 331 328 327 323 325 326 326 327 327 327 326 327 328 328 326 324 322
323 322 322 323 325 326 326 325 326 324 324 325 328 331 331 341 348 352 354 357 357 357 357 348 344 337 332 329 327 326 327 327 327 327 326 323 326 327 328 327 326 325 325 325 325 323 323 322 324
318 323 323 323 323 325 326 326 325 323 324 323 326 328 329 341 352 353 356 357 357 357 354 346 341 336 330 328 327 326 325 325 325 324 323 323 327 327 326 326 325 326 325 323 322 321 322 325 327
318 321 322 322 323 324 325 326 324 323 322 323 323 326 327 345 347 349 355 357 357 355 352 348 343 336 338 333 328 325 325 323 321 321 321 324 330 325 326 328 332 324 323 323 322 321 322 326 329
317 320 321 322 322 323 323 325 324 322 322 322 322 322 322 325 345 349 353 356 356 355 352 348 344 338 340 337 329 325 323 321 321 320 322 329 339 336 339 334 327 325 325 324 324 326 328 325 333
315 317 318 319 319 320 321 323 323 323 323 322 322 323 322 322 337 344 353 355 356 355 353 349 346 342 342 342 329 327 330 329 330 336 323 336 342 342 340 341 325 326 327 329 326 324 327 338 340
314 314 315 316 316 317 321 321 323 322 322 322 322 321 322 321 326 339 345 353 357 356 354 350 348 345 344 344 338 339 337 335 337 339 325 342 345 343 339 340 337 339 337 337 339 337 341 343 343
315 315 314 313 314 315 317 321 321 321 322 322 321 321 322 323 323 337 341 344 358 357 355 352 349 347 345 345 342 343 341 339 340 340 325 343 342 343 341 340 338 339 337 338 339 340 345 346 344
315 314 314 314 314 314 315 318 318 319 320 321 322 322 321 322 323 327 343 345 351 357 356 354 352 350 349 347 345 346 345 345 345 344 343 343 339 339 341 341 339 337 337 339 342 342 345 346 346
315 316 316 315 314 315 314 315 316 316 318 320 321 321 322 323 323 324 329 346 352 357 357 355 353 351 351 350 348 348 349 348 346 346 346 343 340 340 339 338 337 337 338 344 344 345 345 345 348
315 316 316 315 315 315 315 315 316 314 315 317 319 320 322 322 321 323 324 338 352 358 357 354 354 352 352 352 350 349 349 348 347 347 348 346 340 343 331 337 337 335 342 343 342 345 346 346 346
317 316 316 315 315 315 316 316 316 315 315 316 317 318 319 322 322 322 324 332 350 353 354 355 353 354 352 353 351 351 350 348 347 346 347 348 347 343 337 336 336 340 341 343 348 345 348 344 341
318 317 316 316 315 315 315 315 316 315 316 317 316 317 319 320 322 322 324 325 340 354 356 355 353 354 351 354 351 351 352 349 346 345 346 347 346 342 328 338 343 343 345 345 344 345 344 340 331
318 318 317 316 316 316 317 315 316 317 316 318 317 318 319 320 321 321 322 323 337 357 353 354 354 353 352 354 353 350 349 347 345 345 349 347 344 341 332 340 344 342 344 342 344 342 340 333 330
317 318 318 318 316 316 317 317 316 316 316 317 318 319 320 321 322 322 322 323 344 356 354 353 352 353 352 352 350 348 346 345 345 347 346 345 343 343 341 342 341 340 340 340 341 339 334 331 331
318 319 318 318 318 317 318 319 318 317 316 315 317 318 319 320 323 323 323 330 352 354 353 354 353 353 352 350 349 347 345 345 345 346 344 344 344 341 337 333 331 338 341 341 340 334 331 332 331
319 317 318 319 320 319 317 320 319 318 318 317 316 317 318 320 322 323 323 334 355 353 354 354 354 353 350 349 348 346 346 345 345 346 346 342 339 339 338 334 334 336 336 336 335 332 333 331 332
319 318 319 319 320 319 320 319 319 319 318 318 317 315 317 319 321 323 324 340 354 351 354 355 354 352 350 348 348 346 346 345 344 341 336 336 340 341 342 341 338 336 336 333 332 330 328 331 326
317 319 319 319 319 324 320 319 319 318 318 318 318 316 316 318 320 323 326 341 354 352 353 352 350 348 347 349 346 347 344 340 332 335 338 341 341 339 337 335 331 330 331 331 330 331 332 327 317
317 320 321 323 326 323 318 319 319 319 319 318 318 317 316 317 320 323 326 350 352 352 352 350 352 350 349 348 347 341 335 333 340 341 341 341 339 336 334 329 329 331 331 332 332 327 320 315 313
319 320 320 321 325 321 318 318 320 320 319 317 317 317 317 316 320 323 325 349 352 352 354 352 351 349 349 348 341 333 337 341 343 340 338 336 335 333 330 329 329 330 329 331 324 317 315 312 312
319 320 318 321 322 322 319 319 320 318 317 318 317 317 318 317 320 323 324 349 350 351 354 352 351 350 350 345 338 337 344 344 339 339 336 336 335 332 331 330 330 330 330 323 317 315 312 310 308
317 317 321 320 322 321 318 317 316 318 317 318 318 317 318 318 321 324 324 335 348 351 353 352 350 350 347 347 341 344 345 340 339 338 336 333 331 328 328 329 330 327 320 316 313 315 311 309 318
319 318 318 319 321 321 317 315 317 319 320 319 318 317 320 320 322 324 331 347 348 351 351 350 349 348 346 345 345 344 341 339 336 334 333 333 331 328 330 327 321 317 315 313 311 309 313 320 320
317 319 318 322 318 318 317 319 317 317 318 319 318 318 321 321 323 329 346 346 350 350 349 348 347 348 348 347 344 342 342 335 332 333 330 328 330 330 327 320 317 315 313 311 313 318 319 320 320
Wind_Speed
9 5 5 9 8 9 20 22 21 19 11 9 11 9 10 10 7 5 10 8 18 23 32 31 28 24 21 20 21 22 21 19 17 15 15 16 17 16 16 17 17 18 17 15 12 8 6 7 7
6 8 9 11 9 16 18 22 23 17 9 3 7 9 14 10 3 12 11 12 22 23 32 32 28 24 22 21 23 23 22 20 17 15 15 16 17 17 17 16 16 16 15 13 11 8 6 7 7
7 11 13 7 17 19 20 22 19 17 16 7 14 10 8 3 4 4 8 18 23 24 29 31 28 24 22 21 23 23 22 20 17 15 15 16 17 17 16 14 14 14 13 12 10 8 7 7 6
8 11 14 14 23 23 27 25 27 6 12 14 16 7 6 4 2 3 12 18 22 22 25 29 28 26 24 22 20 22 22 20 17 15 15 16 17 16 16 14 13 13 12 11 9 8 7 6 5
15 15 14 19 27 27 23 18 28 9 17 20 18 15 6 8 5 6 14 19 22 23 24 30 29 27 26 22 20 21 21 19 17 15 15 17 17 16 15 13 12 11 10 9 8 7 6 5 4
15 17 17 21 27 26 24 31 19 22 15 23 23 20 12 11 6 9 13 18 20 24 25 29 29 27 25 22 20 21 20 18 16 16 16 18 18 16 14 13 11 9 9 8 8 7 6 5 4
20 16 23 27 26 25 25 26 18 19 20 22 16 14 20 7 8 10 14 18 21 23 24 33 32 29 26 22 19 19 18 17 16 16 17 19 18 15 13 11 9 8 8 7 8 7 6 5 5
26 17 29 27 24 29 24 23 23 22 24 24 16 13 11 11 11 11 14 18 22 23 23 35 34 30 27 25 21 19 18 18 17 17 18 18 16 14 12 9 9 8 7 7 7 7 6 6 4
20 17 22 30 30 21 24 25 16 15 24 28 27 17 10 5 8 12 16 19 22 22 25 28 30 31 26 24 23 20 19 18 17 18 18 17 13 13 10 10 9 8 7 6 6 6 6 4 2
19 17 28 26 24 22 27 24 29 12 24 24 28 28 24 9 10 14 18 22 24 24 24 27 27 31 26 23 25 22 21 19 19 20 20 16 11 9 8 10 9 7 6 5 5 5 4 2 3
22 22 24 29 28 28 28 26 29 19 22 22 22 26 29 18 16 17 18 21 24 25 24 26 26 26 24 22 28 23 19 18 18 17 20 14 11 11 11 9 9 7 6 4 4 3 3 3 5
18 24 29 28 31 35 22 27 25 25 22 23 14 23 23 24 18 21 21 22 25 27 26 27 27 28 25 21 23 19 19 19 19 18 20 15 13 13 10 7 7 7 8 6 7 5 7 4 4
15 16 23 24 26 32 30 23 23 30 27 22 27 18 23 13 18 18 21 21 25 29 29 28 28 27 27 24 21 19 18 17 15 17 20 14 12 12 12 10 10 8 8 8 7 7 5 4 5
18 18 18 17 21 27 25 29 26 36 28 26 27 26 21 20 22 19 22 23 24 29 33 29 28 28 28 24 24 22 20 18 17 16 16 16 16 15 12 11 10 10 9 8 8 8 7 5 6
14 18 20 21 24 23 28 27 32 40 34 30 27 34 30 27 25 24 21 24 23 27 36 30 30 29 28 24 24 21 18 17 15 14 15 15 14 16 12 10 9 10 9 9 9 8 7 8 8
18 19 19 19 24 24 21 27 29 38 40 39 35 30 27 31 31 27 24 24 24 26 33 37 32 30 30 26 24 20 18 17 15 14 13 15 14 11 13 9 9 9 10 8 9 9 9 11 6
17 17 20 22 21 15 16 25 24 32 36 41 41 37 35 31 27 30 26 22 27 31 31 35 37 29 32 26 23 20 19 17 15 14 12 13 11 10 9 9 9 10 9 9 7 11 7 12 5
19 18 17 15 16 14 18 22 20 25 31 32 37 41 34 34 32 29 26 26 27 33 32 33 35 30 30 27 24 19 16 16 15 14 12 14 11 11 12 8 9 9 9 11 13 9 7 5 4
21 24 24 22 20 12 18 21 22 18 26 28 33 28 28 30 29 31 31 28 28 31 36 33 35 33 32 28 25 22 18 18 16 14 14 11 12 11 13 8 15 15 15 16 13 8 11 6 3
23 25 26 25 21 20 24 23 21 19 22 26 26 23 24 25 25 28 30 31 32 36 35 33 37 36 35 30 24 21 19 18 16 15 14 12 13 12 11 16 17 17 19 19 19 15 7 5 3
21 24 24 25 24 20 21 26 26 21 29 33 35 32 28 29 29 28 31 33 33 34 38 37 40 38 36 24 23 23 21 20 18 16 14 15 16 16 16 18 19 15 17 18 18 17 13 8 10
25 21 24 17 20 17 18 21 25 26 27 27 35 37 35 34 30 30 33 35 34 36 40 39 40 39 32 27 25 27 26 24 21 20 22 19 14 12 13 14 11 14 16 21 16 15 10 11 11
17 14 16 19 20 19 29 14 25 26 28 28 29 39 41 38 33 32 35 37 35 39 42 44 43 41 32 31 26 28 26 29 29 23 17 14 15 16 11 10 13 12 10 10 7 7 8 4 5
13 15 17 17 14 15 27 21 22 20 24 20 23 39 42 41 39 36 33 36 37 43 42 44 39 37 36 33 28 31 30 24 21 18 17 18 13 9 12 12 7 6 8 10 6 4 6 6 5
16 10 6 7 10 19 15 17 23 17 28 22 19 30 40 43 40 39 38 41 45 49 47 45 42 41 36 34 35 28 21 17 18 19 19 12 14 17 17 15 13 8 7 4 2 4 3 3 5
11 12 6 8 14 18 21 23 21 24 24 20 21 30 36 44 42 43 46 49 55 54 52 52 47 42 39 35 31 27 24 21 20 17 16 19 19 14 21 17 12 5 3 5 2 1 3 4 6
2 10 17 16 20 17 17 5 22 17 15 20 18 23 30 44 45 44 51 50 54 53 51 51 47 44 40 33 32 29 25 23 18 18 21 18 16 20 16 13 12 8 5 3 2 4 6 7 6
12 2 4 4 6 15 10 20 14 19 19 17 16 20 32 42 43 46 39 47 59 51 50 45 46 45 38 35 32 31 27 21 19 19 17 19 22 17 14 12 7 4 3 2 3 5 5 5 4
5 4 9 12 11 10 15 12 11 15 17 13 17 29 36 38 44 44 26 43 45 54 54 48 46 43 38 37 36 32 27 20 20 20 23 22 20 14 11 7 7 5 3 3 4 3 4 5 5
16 19 18 10 13 14 16 19 11 16 17 18 15 30 29 39 43 30 32 38 17 59 50 48 45 43 44 39 35 30 28 25 26 25 24 21 17 14 10 8 6 4 2 2 3 4 5 4 3
Wind_Direction
239 268 267 245 244 231 247 239 248 256 218 252 276 286 251 351 355 46 145 148 155 165 175 170 168 168 168 170 176 179 175 171 163 156 148 144 147 149 146 147 151 156 158 158 157 150 139 157 161
220 229 230 259 241 245 243 236 252 236 242 228 251 249 256 257 25 123 144 155 156 165 172 173 172 170 170 171 176 180 177 174 167 161 153 149 151 151 148 149 156 165 170 170 172 172 166 172 173
185 211 243 228 235 244 254 251 228 237 226 213 244 237 286 314 76 81 149 160 164 165 172 180 173 171 171 172 177 179 179 177 170 165 159 155 157 157 155 156 164 168 171 174 177 183 187 183 187
205 213 248 252 245 234 248 267 278 263 208 220 233 242 220 99 93 175 162 163 169 163 167 177 174 173 173 174 176 179 181 179 174 171 166 163 164 164 166 166 168 173 179 183 186 189 192 195 202
220 241 235 238 243 251 263 250 265 231 261 231 221 227 203 145 141 162 164 166 171 167 169 176 176 175 176 175 177 180 183 181 180 179 174 170 170 172 172 171 172 180 187 193 196 201 204 209 215
222 233 240 240 244 247 243 253 234 267 242 255 237 229 232 126 144 159 167 168 173 170 180 182 175 176 177 177 176 181 185 186 185 183 179 175 175 177 176 176 179 187 196 203 210 215 216 214 216
241 231 244 250 256 253 240 234 227 244 239 245 244 252 238 163 169 169 171 170 169 171 180 178 175 178 179 179 176 180 183 187 187 186 181 179 180 181 182 187 194 205 211 215 220 219 213 204 207
240 251 259 250 251 257 262 249 221 241 246 243 240 226 257 130 151 166 168 170 172 174 176 175 175 176 180 179 178 180 183 187 187 185 182 182 183 187 194 200 208 212 219 219 215 213 206 205 214
237 248 248 248 254 254 261 264 239 225 250 244 239 204 216 129 175 181 173 173 175 178 178 172 174 177 170 180 177 180 185 186 183 181 182 181 187 195 203 204 213 213 211 209 206 206 207 210 243
232 244 248 261 266 266 268 262 254 226 237 246 238 240 238 215 203 195 188 182 181 181 182 178 174 176 172 175 178 181 183 180 178 179 179 179 184 185 189 228 210 206 197 194 195 205 221 298 353
244 246 266 276 275 278 278 281 249 236 243 234 237 227 230 206 209 207 200 194 188 184 182 182 177 175 171 172 175 179 175 176 176 177 181 166 187 193 182 226 212 203 201 206 249 237 355 288 249
250 257 266 277 281 281 288 270 267 265 254 256 242 235 230 215 218 215 211 203 193 186 184 182 179 173 175 178 167 172 169 175 178 179 178 176 181 213 183 203 194 192 232 193 223 236 223 256 272
266 271 273 269 262 269 270 261 263 269 268 254 261 245 234 218 223 218 218 214 203 187 181 185 182 175 176 179 169 171 172 175 181 185 185 188 183 199 196 198 196 213 212 227 221 223 256 242 264
277 285 283 277 278 263 255 259 257 257 256 250 254 253 244 235 229 233 215 218 209 183 181 186 182 180 178 175 173 175 173 178 179 185 188 189 175 217 201 206 199 211 210 220 225 237 236 241 239
277 269 270 257 252 252 260 255 250 253 255 247 237 247 247 244 237 230 227 215 207 192 189 184 186 185 181 175 175 175 179 178 179 183 195 185 175 227 188 210 211 218 218 216 228 247 237 236 243
266 263 267 263 239 237 231 255 250 248 247 249 248 248 250 235 232 229 221 218 202 187 191 182 180 189 184 179 176 176 182 179 181 186 196 190 190 212 194 211 220 220 216 237 237 240 252 232 238
244 254 257 268 231 217 245 259 252 253 256 233 239 238 242 239 232 223 218 214 201 205 197 194 185 189 187 183 180 176 192 177 184 187 197 196 195 203 193 205 221 211 218 232 228 220 232 247 251
277 276 269 254 262 249 242 258 266 252 258 243 231 232 232 234 227 218 214 211 205 200 202 200 193 187 188 183 178 177 185 180 185 188 192 209 192 198 194 198 202 208 228 231 221 198 200 211 245
273 276 278 280 287 258 262 273 277 270 243 268 227 215 232 231 229 222 216 212 203 186 201 197 190 186 186 180 174 178 184 179 183 184 181 196 187 191 195 193 207 213 205 212 207 200 221 205 253
269 267 267 273 261 265 264 258 254 257 266 254 251 234 225 226 227 222 212 208 194 182 195 196 188 184 185 180 173 175 177 175 178 179 181 184 181 186 174 205 219 219 220 223 226 212 183 132 320
268 263 265 272 272 262 276 278 259 246 247 243 249 242 238 233 225 216 209 201 185 186 194 186 176 185 182 177 164 168 167 165 168 179 176 182 181 195 206 217 230 232 234 242 239 214 192 226 298
256 248 261 295 285 269 260 261 259 250 234 232 232 231 232 233 226 218 205 196 182 194 186 182 177 181 174 163 169 169 166 166 173 168 185 187 200 205 203 212 222 240 251 253 236 218 239 272 269
291 284 275 258 257 271 260 260 256 250 235 223 222 222 224 223 222 220 206 190 189 195 186 178 179 175 163 163 168 168 172 178 185 187 190 191 194 203 225 238 227 234 216 194 220 243 205 245 271
252 250 264 273 266 252 248 245 257 247 257 229 227 213 216 217 219 215 210 188 189 187 179 177 175 157 164 159 165 181 186 178 168 180 186 188 179 177 174 184 185 156 150 148 146 189 245 255 267
239 257 235 237 221 242 249 228 241 244 244 247 230 222 209 211 214 207 205 184 185 183 173 166 161 164 157 166 180 183 171 167 164 169 187 177 168 175 171 152 133 138 141 141 236 229 236 277 308
271 218 247 265 245 251 242 234 233 244 253 237 250 227 213 207 209 205 202 190 184 175 168 161 164 157 160 173 169 163 162 155 165 183 147 145 173 175 165 163 166 169 208 287 234 266 308 323 319
355 228 252 258 263 273 269 229 285 262 263 223 238 260 222 200 209 206 207 186 179 170 160 159 156 155 166 156 159 156 148 167 173 154 151 178 178 164 162 171 177 191 238 208 260 303 310 322 333
200 225 233 202 247 255 252 259 255 242 221 233 225 232 242 204 204 208 205 180 201 159 158 153 155 154 150 157 151 149 163 166 161 167 170 153 155 156 161 171 192 188 182 239 320 351 337 348 31
178 217 233 267 252 269 275 261 36 340 325 230 217 226 229 197 200 208 194 167 173 156 150 151 146 147 151 153 156 161 159 158 155 154 150 156 162 163 161 165 158 171 211 272 311 342 21 57 49
226 231 227 245 256 258 260 261 47 291 313 308 222 219 219 195 195 189 146 159 164 139 142 146 143 145 154 157 157 153 150 153 150 151 153 147 153 158 159 155 165 187 251 337 42 76 65 49 36